星链-30133 (STARLINK-30133 )

导读 | 豆包AI

STARLINK-30133是美国太空探索技术公司(SpaceX)星链互联网卫星星座的一员,于2023年6月4日发射入轨。星链项目旨在构建全球卫星互联网星座,为全球偏远地区等提供高速网络服务,这类低轨卫星发射后会逐步调整轨道,服务全球网络覆盖。

Basic Information
目录编号:
56837
目录名称:
STARLINK-30133
国际标识:
2023-079Q
轨道中心:
EARTH
卫星名称:
星链-30133
卫星全名:
星链-30133 (STARLINK-30133 )
卫星状态:
在轨 (已飞行1061 天)
发射日期:
2023-06-04 UTC
国别 :
美国 (US)
星等 :
--
Orbit Information
数据来源 国际轨道数据
星历时间: 2026-04-30T11:41:57+0800
12小时前
查看轨道信息
半长轴: 6863.358km
偏心率: 0.0004562
轨道倾角: 43.003°
近地点辐角 357.277°
升交点赤经 176.001°
平近点角 2.806°
近地点: 482.089km
远地点: 488.353km
周期: 94.312分钟
每日圈数: 15.268551
Detailed Information
固有亮度:
5
最大亮度:
0.5
卫星平台:
Starlink v2.0 mini
覆盖范围:
全球
运营商:
太空探索技术公司
运营商所在国:
美国
制造商(研发单位):
太空探索技术公司
制造商所在国:
美国
使用方式:
暂无
Satellite Introduction
星链(Starlink)计划是由太空探索技术公司(SpaceX)提出的一个巨型低轨卫星互联网星座项目,计划在2019年至2024年间在太空搭建由约1.2万颗卫星组成的“星链”网络,其中1584颗将部署在地球上空550千米处的近地轨道,并从2020年开始工作。该卫星仍在工作。
2D Orbit Map
3D Orbit Map
Orbit Altitude Analysis Chart
Orbit Inclination Analysis Chart
Orbit Comprehensive Analysis Chart
View Comprehensive Chart